This is the latest recevied weather packets stored in our database for station/object CA3DPI. If no packets are shown the sender has not sent any weather packets the latest 10 day(s).
| Time | Temp. | Humidity | Pressure | Rain* | Wind** | Luminosity | Snow |
|---|---|---|---|---|---|---|---|
| 1777655213 | 18.33° C | 50% | 1023.7 hPa | - | - | - | - |
| 1777654613 | 17.22° C | 51% | 1023.7 hPa | - | - | - | - |
| 1777654012 | 17.22° C | 49% | 1023.8 hPa | - | - | - | - |
| 1777653412 | 17.78° C | 48% | 1024 hPa | - | - | - | - |
| 1777652812 | 17.78° C | 47% | 1024.1 hPa | - | - | - | - |
| 1777652212 | 17.22° C | 49% | 1024.3 hPa | - | - | - | - |
| 1777651612 | 16.67° C | 48% | 1024.2 hPa | - | - | - | - |
| 1777651012 | 16.67° C | 51% | 1024.4 hPa | - | - | - | - |
| 1777650411 | 16.11° C | 51% | 1024.3 hPa | - | - | - | - |
| 1777649811 | 16.11° C | 49% | 1024.2 hPa | - | - | - | - |
| 1777649211 | 16.11° C | 50% | 1024.2 hPa | - | - | - | - |
| 1777648611 | 15.56° C | 52% | 1024.5 hPa | - | - | - | - |
| 1777648011 | 15.56° C | 49% | 1024.1 hPa | - | - | - | - |
| 1777647410 | 15.56° C | 49% | 1024 hPa | - | - | - | - |
| 1777646810 | 15° C | 50% | 1024 hPa | - | - | - | - |
| 1777646215 | 15.56° C | 49% | 1024.2 hPa | - | - | - | - |
| 1777645615 | 15° C | 52% | 1024.3 hPa | - | - | - | - |
| 1777645015 | 14.44° C | 51% | 1024.1 hPa | - | - | - | - |
| 1777644415 | 14.44° C | 51% | 1024.4 hPa | - | - | - | - |
| 1777643815 | 14.44° C | 47% | 1024.2 hPa | - | - | - | - |
| 1777643215 | 14.44° C | 54% | 1024.1 hPa | - | - | - | - |
| 1777642614 | 14.44° C | 56% | 1024.1 hPa | - | - | - | - |
| 1777642070 | 14.44° C | 55% | 1024.1 hPa | - | - | - | - |
| 1777642014 | 14.44° C | 55% | 1024.1 hPa | - | - | - | - |
| 1777641576 | 14.44° C | 54% | 1024 hPa | - | - | - | - |
* Rain since midnight (hover to see other rain measurements)
** Current wind speed in m/s (hover to see current wind gust speed)